Weather History for LXGB - October, 2012

Change the Weather History Date:

Wednesday, October 24, 2012

  Actual Average Record
Temperature  
Mean Temperature 65 °F -  
Max Temperature 67 °F 64 °F 78 °F (2004)
Min Temperature 63 °F 56 °F 53 °F (2003)
Growing Degree Days 15 (Base 50)    
Moisture  
Dew Point 61 °F    
Average Humidity 87    
Maximum Humidity 100    
Minimum Humidity 69    
Precipitation  
Precipitation 0.39 in - - ()
Sea Level Pressure  
Sea Level Pressure 29.94 in    
Wind  
Wind Speed 9 mph ()    
Max Wind Speed 17 mph    
Max Gust Speed -    
Visibility 5.9 miles    
Events Rain    
Averages and records for this station are not official NWS values.
T = Trace of Precipitation, MM = Missing Value Source: Averaged Metar Reports

Daily Weather History Graph

Daily Weather History Graph

Search for Another Location

Airport or City:

Trip Planner

Search our weather history database for the weather conditions in past years. The results will help you decide how hot, cold, wet, or windy it might be!

Date:

Astronomy

Oct. 24, 2012 Rise Set
Actual Time 8:36 AM CEST 7:33 PM CEST
Civil Twilight 8:10 AM CEST 7:59 PM CEST
Nautical Twilight 7:40 AM CEST 8:30 PM CEST
Astronomical Twilight 7:10 AM CEST 8:59 PM CEST
Moon 4:34 PM CEST (10/24) 3:26 AM CEST (10/24)
Length of Visible Light 11h 49m
Length of Day
10h 57m
Waxing Gibbous, 73% of the Moon is Illuminated
Oct 24
Waxing Gibbous
Oct 29
Full
Nov 7
Last Quarter
Nov 13
New
Nov 20
First Quarter

Hourly Weather History & Observations

Time (CEST) Temp. Dew Point Humidity Pressure Visibility Wind Dir Wind Speed Gust Speed Precip Events Conditions
12:50 AM 64.4 °F 62.6 °F 94% 30.01 in 6.2 mi East 8.1 mph - N/A   Unknown
1:50 AM 65 °F 63 °F 91% 30.03 in 9 mi East 9.2 mph - -  
1:50 AM 66.2 °F 62.6 °F 88% 30.01 in 6.2 mi East 9.2 mph - N/A   Unknown
2:50 AM 66.2 °F 62.6 °F 88% 29.98 in 6.2 mi ESE 13.8 mph - N/A   Unknown
3:50 AM 66.2 °F 62.6 °F 88% 29.98 in 6.2 mi East 12.7 mph - N/A   Unknown
4:50 AM 64.4 °F 62.6 °F 94% 29.95 in 6.2 mi East 17.3 mph - N/A   Unknown
5:50 AM 66.2 °F 62.6 °F 88% 29.95 in 6.2 mi ESE 10.4 mph - N/A Rain Light Rain Showers
6:50 AM 64.4 °F 62.6 °F 94% 29.98 in 6.2 mi East 12.7 mph - N/A Rain Light Rain Showers
7:50 AM 65 °F 59 °F 76% 29.96 in 7 mi ESE 9.2 mph - - Rain Light Rain Showers
7:50 AM 64.4 °F 59.0 °F 83% 29.95 in 6.2 mi ESE 9.2 mph - N/A Rain Light Rain Showers
8:50 AM 64.4 °F 59.0 °F 83% 29.92 in 6.2 mi ENE 16.1 mph - N/A   Mostly Cloudy
9:50 AM 64.4 °F 60.8 °F 88% 29.95 in 6.2 mi East 10.4 mph - N/A   Mostly Cloudy
10:50 AM 66.2 °F 60.8 °F 83% 29.98 in 6.2 mi ENE 8.1 mph - N/A   Mostly Cloudy
11:50 AM 64.4 °F 59.0 °F 83% 29.98 in 6.2 mi ENE 9.2 mph - N/A   Mostly Cloudy
12:50 PM 66.2 °F 57.2 °F 73% 29.98 in 6.2 mi NE 9.2 mph - N/A   Mostly Cloudy
1:50 PM 67 °F 59 °F 69% 29.96 in 7 mi ENE 9.2 mph - -   Partly Cloudy
1:50 PM 66.2 °F 59.0 °F 78% 29.95 in 6.2 mi ENE 9.2 mph - N/A   Mostly Cloudy
2:50 PM 66.2 °F 60.8 °F 83% 29.92 in 6.2 mi NE 6.9 mph - N/A   Mostly Cloudy
3:50 PM 66.2 °F 60.8 °F 83% 29.92 in 6.2 mi SE 5.8 mph - N/A   Mostly Cloudy
4:50 PM 66.2 °F 62.6 °F 88% 29.92 in 6.2 mi East 5.8 mph - N/A   Mostly Cloudy
5:50 PM 66.2 °F 62.6 °F 88% 29.89 in 6.2 mi East 9.2 mph - N/A   Mostly Cloudy
6:50 PM 64.4 °F 62.6 °F 94% 29.89 in 3.7 mi ENE 5.8 mph - N/A Rain Light Rain
7:50 PM 64.4 °F 62.6 °F 94% 29.89 in 4.3 mi ENE 4.6 mph - N/A Rain Light Rain
8:50 PM 64.4 °F 62.6 °F 94% 29.89 in 4.3 mi ENE 4.6 mph - N/A Rain Light Rain
9:50 PM 64.4 °F 62.6 °F 94% 29.89 in 4.3 mi ENE 5.8 mph - N/A Rain Light Rain
10:50 PM 64.4 °F 62.6 °F 94% 29.89 in 3.7 mi NE 6.9 mph - N/A Rain Rain
11:50 PM 64.4 °F 64.4 °F 100% 29.89 in 5.0 mi NE 5.8 mph - N/A   Haze